Tomahawk, WI

12:50 AM CST on February 25, 2017 (GMT -0600)
Tomahawk

Weather History for KTKV - February, 2013

Change the Weather History Date:

Wednesday, February 6, 2013

  Actual Average (KRRL) Record (KRRL)
Temperature  
Mean Temperature 4 °F -  
Max Temperature 21 °F 23 °F 51 °F (1991)
Min Temperature -14 °F -2 °F -38 °F (1907)
Degree Days  
Heating Degree Days 62    
Moisture  
Dew Point 3 °F    
Average Humidity 83    
Maximum Humidity 93    
Minimum Humidity 68    
Precipitation  
Precipitation 0.03 in - - ()
Sea Level Pressure  
Sea Level Pressure 30.05 in    
Wind  
Wind Speed 1 mph (SSE)    
Max Wind Speed 7 mph    
Max Gust Speed -    
Visibility 7 miles    
Events Snow    
Averages and records for this station are not official NWS values.
T = Trace of Precipitation, MM = Missing Value Source: NWS Daily Summary

Daily Weather History Graph

Daily Weather History Graph

Search for Another Location

Airport or City:

Trip Planner

Search our weather history database for the weather conditions in past years. The results will help you decide how hot, cold, wet, or windy it might be!

Date:

Astronomy

Feb. 06, 2013 Rise Set
Actual Time 7:13 AM CST 5:13 PM CST
Civil Twilight 6:42 AM CST 5:44 PM CST
Nautical Twilight 6:07 AM CST 6:20 PM CST
Astronomical Twilight 5:32 AM CST 6:54 PM CST
Moon 4:03 AM CST (2/6) 1:26 PM CST (2/6)
Length of Visible Light 11h 02m
Length of Day
10h 00m
Waning Crescent, 17% of the Moon is Illuminated
Feb 6
Waning Crescent
Feb 10
New
Feb 17
First Quarter
Feb 25
Full
Mar 4
Last Quarter

Hourly Weather History & Observations

Time (CST) Temp. Windchill Dew Point Humidity Pressure Visibility Wind Dir Wind Speed Gust Speed Precip Events Conditions
12:15 AM -7.6 °F - -13.0 °F 77% 30.01 in 10.0 mi Calm Calm - N/A   Clear
12:35 AM -9.4 °F - -14.8 °F 77% 30.00 in 10.0 mi Calm Calm - N/A   Clear
12:55 AM -9.4 °F - -14.8 °F 77% 30.00 in 10.0 mi Calm Calm - N/A   Clear
1:15 AM -9.4 °F - -14.8 °F 77% 30.02 in 10.0 mi Calm Calm - N/A   Clear
1:35 AM -11.2 °F - -16.6 °F 77% 30.02 in 10.0 mi Calm Calm - N/A   Clear
1:55 AM -13.0 °F - -16.6 °F 84% 30.03 in 10.0 mi Calm Calm - N/A   Clear
2:15 AM -9.4 °F - -14.8 °F 77% 30.03 in 10.0 mi Calm Calm - N/A   Mostly Cloudy
2:35 AM -9.4 °F - -14.8 °F 77% 30.04 in 10.0 mi Calm Calm - N/A   Mostly Cloudy
2:55 AM -9.4 °F - -14.8 °F 77% 30.04 in 10.0 mi Calm Calm - N/A   Mostly Cloudy
3:15 AM -11.2 °F - -16.6 °F 77% 30.04 in 10.0 mi Calm Calm - N/A   Scattered Clouds
3:35 AM -11.2 °F - -16.6 °F 77% 30.03 in 10.0 mi Calm Calm - N/A   Scattered Clouds
3:55 AM -13.0 °F - -16.6 °F 84% 30.04 in 10.0 mi Calm Calm - N/A   Clear
4:15 AM -11.2 °F - -16.6 °F 77% 30.05 in 10.0 mi Calm Calm - N/A   Clear
4:35 AM -13.0 °F - -16.6 °F 84% 30.05 in 10.0 mi Calm Calm - N/A   Mostly Cloudy
4:55 AM -13.0 °F - -16.6 °F 84% 30.05 in 10.0 mi Calm Calm - N/A   Scattered Clouds
5:15 AM -13.0 °F - -18.4 °F 77% 30.05 in 10.0 mi Calm Calm - N/A   Clear
5:35 AM -13.0 °F - -16.6 °F 84% 30.05 in 10.0 mi Calm Calm - N/A   Clear
5:55 AM -14.8 °F - -18.4 °F 84% 30.05 in 10.0 mi Calm Calm - N/A   Clear
6:15 AM -13.0 °F - -18.4 °F 77% 30.06 in 10.0 mi Calm Calm - N/A   Clear
6:35 AM -14.8 °F - -18.4 °F 84% 30.06 in 10.0 mi Calm Calm - N/A   Clear
6:55 AM -14.8 °F - -20.2 °F 77% 30.06 in 10.0 mi Calm Calm - N/A   Clear
7:15 AM -14.8 °F - -22.0 °F 70% 30.06 in 10.0 mi Calm Calm - N/A   Clear
7:35 AM -14.8 °F - -20.2 °F 77% 30.07 in 10.0 mi Calm Calm - N/A   Clear
7:55 AM -14.8 °F - -18.4 °F 84% 30.08 in 10.0 mi Calm Calm - N/A   Clear
8:15 AM -11.2 °F - -16.6 °F 77% 30.09 in 10.0 mi Calm Calm - N/A   Clear
8:35 AM -7.6 °F - -13.0 °F 77% 30.10 in 10.0 mi Calm Calm - N/A   Clear
8:55 AM -4.0 °F - -7.6 °F 85% 30.10 in 10.0 mi Calm Calm - N/A   Clear
9:15 AM 3.2 °F -6.2 °F 1.4 °F 92% 30.09 in 10.0 mi SSE 4.6 mph - N/A   Clear
9:35 AM 8.6 °F 2.0 °F 5.0 °F 85% 30.10 in 10.0 mi South 3.5 mph - N/A   Clear
9:55 AM 12.2 °F 6.1 °F 8.6 °F 85% 30.11 in 10.0 mi South 3.5 mph - N/A   Clear
10:15 AM 15.8 °F - 12.2 °F 86% 30.10 in 10.0 mi Calm Calm - N/A   Mostly Cloudy
10:35 AM 17.6 °F - 12.2 °F 79% 30.10 in 10.0 mi Calm Calm - N/A   Overcast
10:55 AM 19.4 °F 10.4 °F 12.2 °F 74% 30.10 in 10.0 mi SSW 6.9 mph - N/A   Overcast
11:15 AM 19.4 °F 14.3 °F 12.2 °F 74% 30.09 in 10.0 mi South 3.5 mph - N/A   Overcast
11:35 AM 21.2 °F 12.6 °F 12.2 °F 68% 30.09 in 10.0 mi SSW 6.9 mph - N/A   Overcast
11:55 AM 21.2 °F 16.4 °F 12.2 °F 68% 30.08 in 10.0 mi SSW 3.5 mph - N/A   Overcast
12:15 PM 21.2 °F 14.9 °F 12.2 °F 68% 30.07 in 10.0 mi South 4.6 mph - N/A   Mostly Cloudy
12:35 PM 21.2 °F 16.4 °F 12.2 °F 68% 30.07 in 10.0 mi South 3.5 mph - N/A   Mostly Cloudy
12:55 PM 21.2 °F 16.4 °F 12.2 °F 68% 30.08 in 7.0 mi SSE 3.5 mph - N/A   Overcast
1:15 PM 21.2 °F 14.9 °F 14.0 °F 74% 30.08 in 2.0 mi South 4.6 mph - N/A Snow Light Snow
1:35 PM 21.2 °F 16.4 °F 14.0 °F 74% 30.07 in 1.0 mi SSE 3.5 mph - N/A Snow Light Snow
1:55 PM 19.4 °F 14.3 °F 15.8 °F 86% 30.06 in 0.8 mi SE 3.5 mph - N/A Snow Light Snow
2:15 PM 19.4 °F 14.3 °F 15.8 °F 86% 30.06 in 0.8 mi SE 3.5 mph - N/A Snow Light Snow
2:35 PM 19.4 °F - 15.8 °F 86% 30.06 in 0.5 mi Calm Calm - N/A Snow Snow
2:55 PM 19.4 °F - 17.6 °F 93% 30.06 in 0.5 mi Calm Calm - 0.02 in Snow Light Snow
3:35 PM 19.4 °F 14.3 °F 17.6 °F 93% 30.05 in 1.0 mi SSE 3.5 mph - N/A Snow Light Snow
3:55 PM 19.4 °F 14.3 °F 17.6 °F 93% 30.04 in 0.8 mi ESE 3.5 mph - N/A Snow Snow
4:15 PM 19.4 °F 14.3 °F 17.6 °F 93% 30.04 in 0.8 mi SE 3.5 mph - N/A Snow Light Snow
4:35 PM 19.4 °F 12.8 °F 17.6 °F 93% 30.02 in 0.8 mi ESE 4.6 mph - N/A Snow Light Snow
4:55 PM 19.4 °F 12.8 °F 17.6 °F 93% 30.03 in 1.5 mi ESE 4.6 mph - 0.01 in Snow Light Snow
5:15 PM 19.4 °F 14.3 °F 17.6 °F 93% 30.03 in 4.0 mi ESE 3.5 mph - N/A Snow Light Snow
5:35 PM 21.2 °F 14.9 °F 17.6 °F 86% 30.02 in 2.5 mi SE 4.6 mph - N/A Snow Light Snow
5:55 PM 21.2 °F 16.4 °F 17.6 °F 86% 30.02 in 5.0 mi ESE 3.5 mph - N/A Snow Light Snow
6:15 PM 21.2 °F 16.4 °F 17.6 °F 86% 30.01 in 7.0 mi ESE 3.5 mph - N/A Snow Light Snow
6:35 PM 21.2 °F 12.6 °F 17.6 °F 86% 30.01 in 7.0 mi SE 6.9 mph - N/A   Overcast
6:55 PM 21.2 °F 13.6 °F 17.6 °F 86% 30.02 in 7.0 mi SE 5.8 mph - N/A   Overcast
7:15 PM 21.2 °F 13.6 °F 17.6 °F 86% 30.02 in 10.0 mi SE 5.8 mph - N/A   Overcast
7:35 PM 21.2 °F 13.6 °F 17.6 °F 86% 30.02 in 10.0 mi SE 5.8 mph - N/A   Overcast
7:55 PM 21.2 °F 16.4 °F 17.6 °F 86% 30.04 in 10.0 mi SSE 3.5 mph - N/A   Overcast
8:15 PM 19.4 °F 12.8 °F 17.6 °F 93% 30.03 in 10.0 mi SE 4.6 mph - N/A   Overcast
8:35 PM 19.4 °F 12.8 °F 17.6 °F 93% 30.03 in 7.0 mi SE 4.6 mph - N/A   Overcast
8:55 PM 19.4 °F 14.3 °F 17.6 °F 93% 30.03 in 7.0 mi ESE 3.5 mph - N/A   Overcast
9:15 PM 19.4 °F 12.8 °F 17.6 °F 93% 30.03 in 5.0 mi SE 4.6 mph - N/A   Overcast
9:35 PM 19.4 °F - 17.6 °F 93% 30.04 in 4.0 mi Calm Calm - N/A   Overcast
9:55 PM 19.4 °F - 17.6 °F 93% 30.04 in 3.0 mi Calm Calm - N/A   Overcast
10:15 PM 19.4 °F 14.3 °F 17.6 °F 93% 30.03 in 3.0 mi SE 3.5 mph - N/A   Overcast
10:35 PM 21.2 °F - 19.4 °F 93% 30.03 in 2.5 mi Calm Calm - N/A   Overcast
10:55 PM 21.2 °F - 19.4 °F 93% 30.03 in 2.5 mi Calm Calm - N/A   Overcast
11:15 PM 21.2 °F - 19.4 °F 93% 30.04 in 2.5 mi Calm Calm - N/A   Overcast
11:35 PM 21.2 °F 16.4 °F 19.4 °F 93% 30.03 in 2.5 mi ESE 3.5 mph - N/A   Overcast
11:55 PM 21.2 °F - 19.4 °F 93% 30.03 in 2.5 mi Calm Calm - N/A   Overcast